Regional Weather Roundup
Issued by NWS

Home | Current Version | Previous Version | Text Only | Print | Product List | Glossary Off
Versions: 1 2 3 4 5 6 7 8 9 10 11 12 13 14 15 16 17 18 19 20 21 22 23 24 25 26 27 28 29 30 31 32 33 34 35 36 37 38 39 40 41 42 43 44 45 46 47 48 49 50

000
ASUS43 KLSX 240607
RWRMO

WEATHER SUMMARY FOR MISSOURI
NATIONAL WEATHER SERVICE SPRINGFIELD MO
100 AM CDT FRI OCT 24 2014

NOTE: "FAIR" INDICATES FEW OR NO CLOUDS BELOW 12,000 FEET WITH NO
       SIGNIFICANT WEATHER AND/OR OBSTRUCTIONS TO VISIBILITY.
       CURRENT SKY AND/OR WEATHER CONDITIONS ARE NOT AVAILABLE FOR
       CHILLICOTHE AND FARMINGTON.

MOZ001>031-035>038-043-044-053-054-240700-
...NORTHERN AND WESTERN MISSOURI...

CITY           SKY/WX    TMP DP  RH WIND       PRES   REMARKS
KANSAS CTY INT PTCLDY    56  56 100 S8        30.08S FOG
6HR MIN TEMP:  54; 6HR MAX TEMP:  57;

KANSAS C DTWN  PTCLDY    57  55  93 CALM      30.08S FOG
6HR MIN TEMP:  56; 6HR MAX TEMP:  65;

LEE`S SUMMIT   PTCLDY    56  55  97 SW9       30.09S FOG
6HR MIN TEMP:  55; 6HR MAX TEMP:  62;

ST JOSEPH      MOCLDY    55  55 100 S3        30.07R FOG
6HR MIN TEMP:  55; 6HR MAX TEMP:  63;

CHILLICOTHE      N/A     55  54  96 S5        30.08F
6HR MIN TEMP:  49; 6HR MAX TEMP:  60;

KIRKSVILLE     FOG       57  57 100 W6        30.08S VSB 1/4
6HR MIN TEMP:  49; 6HR MAX TEMP:  60;


$$
MOZ066>068-077>081-088>096-101>105-240700-
...SOUTHWEST MISSOURI...

CITY           SKY/WX    TMP DP  RH WIND       PRES   REMARKS
SPRINGFIELD    FOG       49  48  97 S3        30.12S VSB 1
6HR MIN TEMP:  49; 6HR MAX TEMP:  60;

JOPLIN         CLEAR     52  52 100 SE6       30.12F FOG
6HR MIN TEMP:  52; 6HR MAX TEMP:  60;


$$
MOZ032>034-039>042-045>050-055>058-069>072-240700-
...CENTRAL MISSOURI...

CITY           SKY/WX    TMP DP  RH WIND       PRES   REMARKS
COLUMBIA       PTCLDY    54  53  97 CALM      30.09S FOG
6HR MIN TEMP:  52; 6HR MAX TEMP:  59;

JEFFERSON CITY CLEAR     53  50  89 E3        30.09F
6HR MIN TEMP:  52; 6HR MAX TEMP:  62;

ROLLA          CLOUDY    54  48  80 S7        30.10F
6HR MIN TEMP:  51; 6HR MAX TEMP:  56;

SEDALIA        CLOUDY    62  57  83 SW7       30.11S
6HR MIN TEMP:  62; 6HR MAX TEMP:  64;

WHITEMAN AFB   CLOUDY    60  57  89 SW7       30.09F
OSAGE BEACH    CLOUDY    55  50  82 S3        30.10F

$$
MOZ051-052-059>065-240700-
...EAST CENTRAL MISSOURI...

CITY           SKY/WX    TMP DP  RH WIND       PRES   REMARKS
ST LOUIS INTL  CLOUDY    60  48  64 SW6       30.10S
6HR MIN TEMP:  58; 6HR MAX TEMP:  63;

SPIRIT OF STL  MOCLDY    56  49  77 SW5       30.08F
6HR MIN TEMP:  54; 6HR MAX TEMP:  62;

ST CHARLES     PTCLDY    51  48  89 CALM      30.08F
6HR MIN TEMP:  51; 6HR MAX TEMP:  60;


$$
MOZ072>076-082>087-097>100-106>115-240700-
...SOUTH CENTRAL AND SOUTHEAST MISSOURI...

CITY           SKY/WX    TMP DP  RH WIND       PRES   REMARKS
CAPE GIRARDEAU CLEAR     42  41  96 CALM      30.13R
6HR MIN TEMP:  42; 6HR MAX TEMP:  50;

FARMINGTON     PTCLDY    46  43  87 CALM      30.13S
6HR MIN TEMP:  46; 6HR MAX TEMP:  57;

POPLAR BLUFF   CLEAR     46  43  89 CALM      30.13R FOG
6HR MIN TEMP:  46; 6HR MAX TEMP:  54;

WEST PLAINS    CLOUDY    53  46  77 W5        30.14S
6HR MIN TEMP:  46; 6HR MAX TEMP:  56;


$$



USA.gov is the U.S. government's official web portal to all federal, state and local government web resources and services.